This is the latest recevied weather packets stored in our database for station/object K1BES. If no packets are shown the sender has not sent any weather packets the latest 10 day(s).
| Time | Temp. | Humidity | Pressure | Rain* | Wind** | Luminosity | Snow |
|---|---|---|---|---|---|---|---|
| 1777300219 | 28.33° C | 66% | 1017.6 hPa | 0 mm | - | 672 W/m² | - |
| 1777299915 | 28.33° C | 67% | 1017.7 hPa | 0 mm | - | 649 W/m² | - |
| 1777299613 | 28.33° C | 68% | 1017.6 hPa | 0 mm | - | 622 W/m² | - |
| 1777299311 | 28.33° C | 67% | 1017.5 hPa | 0 mm | - | 609 W/m² | - |
| 1777299008 | 27.78° C | 68% | 1017.8 hPa | 0 mm | - | 590 W/m² | - |
| 1777298705 | 27.78° C | 68% | 1017.5 hPa | 0 mm | - | 572 W/m² | - |
| 1777298401 | 27.78° C | 69% | 1017.5 hPa | 0 mm | - | 552 W/m² | - |
| 1777298097 | 27.78° C | 68% | 1017.5 hPa | 0 mm | - | 530 W/m² | - |
| 1777297796 | 27.22° C | 70% | 1017.3 hPa | 0 mm | - | 505 W/m² | - |
| 1777297495 | 26.67° C | 74% | 1017.4 hPa | 0 mm | - | 485 W/m² | - |
| 1777297192 | 26.67° C | 74% | 1017.5 hPa | 0 mm | - | 475 W/m² | - |
| 1777296890 | 26.67° C | 73% | 1017.2 hPa | 0 mm | - | 445 W/m² | - |
| 1777296585 | 27.22° C | 74% | 1017.4 hPa | 0 mm | - | 427 W/m² | - |
| 1777296251 | 26.67° C | 75% | 1017 hPa | 0 mm | - | 398 W/m² | - |
| 1777295947 | 26.11° C | 75% | 1017.1 hPa | 0 mm | - | 374 W/m² | - |
| 1777295645 | 26.11° C | 77% | 1017.2 hPa | 0 mm | - | 357 W/m² | - |
| 1777295342 | 26.11° C | 79% | 1017.1 hPa | 0 mm | - | 332 W/m² | - |
| 1777295040 | 25.56° C | 80% | 1017.2 hPa | 0 mm | - | 312 W/m² | - |
| 1777294736 | 25° C | 83% | 1017.1 hPa | 0 mm | - | 264 W/m² | - |
| 1777294431 | 25° C | 82% | 1017.3 hPa | 0 mm | - | 220 W/m² | - |
| 1777294129 | 25° C | 83% | 1017.2 hPa | 0 mm | - | 182 W/m² | - |
| 1777293825 | 24.44° C | 86% | 1016.9 hPa | 0 mm | - | 150 W/m² | - |
| 1777293525 | 23.89° C | 87% | 1017.1 hPa | 0 mm | - | 135 W/m² | - |
| 1777293221 | 23.89° C | 91% | 1017 hPa | 0 mm | - | 125 W/m² | - |
| 1777292921 | 23.33° C | 94% | 1017 hPa | 0 mm | - | 110 W/m² | - |
* Rain latest hour (hover to see other rain measurements)
** Current wind speed in m/s (hover to see current wind gust speed)